Location: Newark
(25.6108°S, 54.5803°W)
Time: 13:36:46
(UTC+00:00)

Courier 1B Rocket - Pass Details

Date: 29 October 2020
Orbit: 920 x 1202 km, 28.2° (Epoch: 01 December)

Event Time Altitude Azimuth Distance (km) Brightness Sun altitude
Rises 16:05:50 0° 266° (W) 3,600 8.1 74.3°
Reaches altitude 10° 16:08:58 10° 279° (W) 2,630 7.6 73.8°
Maximum altitude 16:13:54 24° 331° (NNW) 1,791 7.1 73.0°
Drops below altitude 10° 16:18:48 10° 23° (NNE) 2,608 7.5 72.2°
Sets 16:21:54 0° 37° (NE) 3,564 8.0 71.6°
